This is the latest recevied weather packets stored in our database for station/object OE7AOT-2. If no packets are shown the sender has not sent any weather packets the latest 10 day(s).
| Time | Temp. | Humidity | Pressure | Rain* | Wind** | Luminosity | Snow |
|---|---|---|---|---|---|---|---|
| 1778250083 | 32.78° C | 49% | 923.8 hPa | 0 mm | - | - | - |
| 1778250015 | 33.89° C | 47% | 923.7 hPa | 0 mm | - | - | - |
| 1778249946 | 35.56° C | 46% | 923.7 hPa | 0 mm | - | - | - |
| 1778249878 | 34.44° C | 47% | 923.7 hPa | 0 mm | - | - | - |
| 1778249810 | 33.89° C | 48% | 923.7 hPa | 0 mm | - | - | - |
| 1778249741 | 32.78° C | 50% | 923.6 hPa | 0 mm | - | - | - |
| 1778249673 | 31.67° C | 51% | 923.7 hPa | 0 mm | - | - | - |
| 1778249604 | 29.44° C | 53% | 923.8 hPa | 0 mm | - | - | - |
| 1778249535 | 28.89° C | 54% | 923.8 hPa | 0 mm | - | - | - |
| 1778249467 | 28.89° C | 54% | 923.8 hPa | 0 mm | - | - | - |
| 1778249399 | 29.44° C | 53% | 923.8 hPa | 0 mm | - | - | - |
| 1778249330 | 29.44° C | 53% | 923.7 hPa | 0 mm | - | - | - |
| 1778249262 | 28.89° C | 53% | 923.7 hPa | 0 mm | - | - | - |
| 1778249193 | 28.33° C | 53% | 923.8 hPa | 0 mm | - | - | - |
| 1778249125 | 28.89° C | 53% | 923.7 hPa | 0 mm | - | - | - |
| 1778249056 | 29.44° C | 53% | 923.7 hPa | 0 mm | - | - | - |
| 1778248988 | 27.78° C | 54% | 923.9 hPa | 0 mm | - | - | - |
| 1778248920 | 27.22° C | 55% | 923.8 hPa | 0 mm | - | - | - |
| 1778248851 | 27.78° C | 54% | 923.8 hPa | 0 mm | - | - | - |
| 1778248783 | 28.33° C | 53% | 923.8 hPa | 0 mm | - | - | - |
| 1778248714 | 28.33° C | 52% | 923.8 hPa | 0 mm | - | - | - |
| 1778248646 | 28.33° C | 52% | 923.8 hPa | 0 mm | - | - | - |
| 1778248577 | 28.89° C | 51% | 923.8 hPa | 0 mm | - | - | - |
| 1778248509 | 30° C | 50% | 923.7 hPa | 0 mm | - | - | - |
| 1778248440 | 31.11° C | 49% | 923.8 hPa | 0 mm | - | - | - |
* Rain latest hour (hover to see other rain measurements)
** Current wind speed in m/s (hover to see current wind gust speed)